TimeCST,TemperatureF,Dew PointF,Humidity,Sea Level PressureIn,VisibilityMPH,Wind Direction,Wind SpeedMPH,Gust SpeedMPH,PrecipitationIn,Events,Conditions,WindDirDegrees,DateUTC
12:15 AM,24.8,14.0,64,30.27,10.0,ENE,6.9,-,N/A,,Overcast,70,2014-02-07 06:15:00
12:35 AM,24.8,14.0,64,30.28,10.0,NE,4.6,-,N/A,,Overcast,40,2014-02-07 06:35:00
12:55 AM,24.8,14.0,64,30.26,10.0,ENE,6.9,-,N/A,,Overcast,60,2014-02-07 06:55:00
1:15 AM,24.8,14.0,64,30.26,10.0,East,4.6,-,N/A,,Overcast,80,2014-02-07 07:15:00
1:35 AM,24.8,14.0,64,30.25,10.0,NE,4.6,-,N/A,,Overcast,50,2014-02-07 07:35:00
1:55 AM,24.8,15.8,69,30.24,10.0,ENE,6.9,-,N/A,,Overcast,70,2014-02-07 07:55:00
2:15 AM,24.8,15.8,69,30.24,10.0,ENE,4.6,-,N/A,,Overcast,70,2014-02-07 08:15:00
2:35 AM,24.8,15.8,69,30.23,10.0,ENE,6.9,-,N/A,,Overcast,70,2014-02-07 08:35:00
2:55 AM,24.8,15.8,69,30.21,10.0,East,6.9,-,N/A,,Overcast,90,2014-02-07 08:55:00
3:15 AM,24.8,15.8,69,30.21,10.0,ENE,5.8,-,N/A,,Overcast,70,2014-02-07 09:15:00
3:35 AM,24.8,15.8,69,30.21,10.0,East,4.6,-,N/A,,Overcast,90,2014-02-07 09:35:00
3:55 AM,24.8,15.8,69,30.18,10.0,East,5.8,-,N/A,,Overcast,100,2014-02-07 09:55:00
4:15 AM,26.6,15.8,64,30.18,10.0,ESE,4.6,-,N/A,,Overcast,110,2014-02-07 10:15:00
4:35 AM,26.6,15.8,64,30.18,10.0,East,8.1,-,N/A,,Overcast,100,2014-02-07 10:35:00
4:55 AM,26.6,17.6,69,30.17,10.0,East,8.1,-,N/A,,Overcast,100,2014-02-07 10:55:00
5:15 AM,26.6,17.6,69,30.18,10.0,East,8.1,-,N/A,,Overcast,100,2014-02-07 11:15:00
5:35 AM,26.6,17.6,69,30.19,10.0,East,3.5,-,N/A,,Overcast,100,2014-02-07 11:35:00
5:55 AM,26.6,17.6,69,30.19,10.0,East,4.6,-,N/A,,Overcast,100,2014-02-07 11:55:00
6:15 AM,26.6,17.6,69,30.21,10.0,ENE,5.8,-,N/A,,Overcast,70,2014-02-07 12:15:00
6:35 AM,26.6,17.6,69,30.22,10.0,ENE,4.6,-,N/A,,Overcast,60,2014-02-07 12:35:00
6:55 AM,26.6,17.6,69,30.23,10.0,ENE,8.1,-,N/A,,Overcast,70,2014-02-07 12:55:00
7:15 AM,26.6,17.6,69,30.22,10.0,East,8.1,-,N/A,,Overcast,90,2014-02-07 13:15:00
7:35 AM,26.6,17.6,69,30.22,10.0,East,4.6,-,N/A,,Mostly Cloudy,80,2014-02-07 13:35:00
7:55 AM,26.6,17.6,69,30.22,10.0,East,4.6,-,N/A,,Mostly Cloudy,100,2014-02-07 13:55:00
8:15 AM,26.6,17.6,69,30.23,10.0,ESE,3.5,-,N/A,,Mostly Cloudy,110,2014-02-07 14:15:00
8:35 AM,28.4,19.4,69,30.22,10.0,SE,6.9,-,N/A,,Scattered Clouds,140,2014-02-07 14:35:00
8:55 AM,28.4,21.2,74,30.22,10.0,SE,9.2,-,N/A,,Mostly Cloudy,140,2014-02-07 14:55:00
9:15 AM,30.2,21.2,69,30.22,10.0,SSE,11.5,-,N/A,,Mostly Cloudy,150,2014-02-07 15:15:00
9:35 AM,30.2,21.2,69,30.23,10.0,South,9.2,-,N/A,,Overcast,170,2014-02-07 15:35:00
9:55 AM,30.2,21.2,69,30.24,10.0,South,8.1,-,N/A,,Overcast,180,2014-02-07 15:55:00
10:15 AM,30.2,21.2,69,30.25,10.0,SSE,6.9,-,N/A,,Overcast,150,2014-02-07 16:15:00
10:35 AM,30.2,21.2,69,30.24,10.0,South,5.8,-,N/A,,Overcast,190,2014-02-07 16:35:00
10:55 AM,32.0,21.2,64,30.24,10.0,SSE,5.8,-,N/A,,Overcast,160,2014-02-07 16:55:00
11:15 AM,32.0,23.0,69,30.24,10.0,South,5.8,-,N/A,,Overcast,190,2014-02-07 17:15:00
11:35 AM,32.0,23.0,69,30.24,10.0,South,8.1,-,N/A,,Overcast,190,2014-02-07 17:35:00
11:55 AM,32.0,24.8,75,30.24,10.0,SW,12.7,-,N/A,,Overcast,220,2014-02-07 17:55:00
12:15 PM,33.8,26.6,75,30.23,10.0,SSW,9.2,-,N/A,,Overcast,210,2014-02-07 18:15:00
12:35 PM,35.6,26.6,70,30.22,10.0,SSW,8.1,-,N/A,,Overcast,210,2014-02-07 18:35:00
12:55 PM,35.6,26.6,70,30.21,10.0,SSW,8.1,-,N/A,,Overcast,200,2014-02-07 18:55:00
1:15 PM,35.6,26.6,70,30.19,10.0,SSW,9.2,-,N/A,,Overcast,200,2014-02-07 19:15:00
1:35 PM,37.4,26.6,65,30.17,10.0,SW,8.1,-,N/A,,Mostly Cloudy,220,2014-02-07 19:35:00
1:55 PM,39.2,26.6,61,30.16,10.0,SW,6.9,-,N/A,,Clear,220,2014-02-07 19:55:00
2:15 PM,41.0,26.6,57,30.13,10.0,SSW,12.7,-,N/A,,Clear,200,2014-02-07 20:15:00
2:35 PM,42.8,26.6,53,30.14,10.0,SSW,8.1,-,N/A,,Clear,210,2014-02-07 20:35:00
2:55 PM,42.8,26.6,53,30.13,10.0,SSW,6.9,-,N/A,,Clear,200,2014-02-07 20:55:00
3:15 PM,44.6,26.6,49,30.11,10.0,South,8.1,-,N/A,,Clear,170,2014-02-07 21:15:00
3:35 PM,44.6,26.6,49,30.12,10.0,SSW,5.8,-,N/A,,Clear,210,2014-02-07 21:35:00
3:55 PM,46.4,26.6,46,30.12,10.0,SSW,6.9,-,N/A,,Clear,200,2014-02-07 21:55:00
4:15 PM,46.4,26.6,46,30.11,10.0,South,9.2,-,N/A,,Clear,190,2014-02-07 22:15:00
4:35 PM,46.4,26.6,46,30.11,10.0,South,10.4,-,N/A,,Clear,180,2014-02-07 22:35:00
4:55 PM,46.4,26.6,46,30.12,10.0,South,8.1,-,N/A,,Clear,190,2014-02-07 22:55:00
5:15 PM,46.4,26.6,46,30.12,10.0,South,9.2,-,N/A,,Clear,190,2014-02-07 23:15:00
5:35 PM,46.4,26.6,46,30.11,10.0,South,9.2,-,N/A,,Clear,190,2014-02-07 23:35:00
5:55 PM,44.6,26.6,49,30.12,10.0,South,8.1,-,N/A,,Clear,190,2014-02-07 23:55:00
6:15 PM,42.8,26.6,53,30.12,10.0,South,6.9,-,N/A,,Clear,170,2014-02-08 00:15:00
6:35 PM,41.0,26.6,57,30.12,10.0,South,8.1,-,N/A,,Clear,170,2014-02-08 00:35:00
6:55 PM,39.2,26.6,61,30.13,10.0,South,6.9,-,N/A,,Clear,180,2014-02-08 00:55:00
7:15 PM,35.6,26.6,70,30.14,10.0,South,6.9,-,N/A,,Clear,190,2014-02-08 01:15:00
7:35 PM,35.6,26.6,70,30.14,10.0,South,6.9,-,N/A,,Clear,190,2014-02-08 01:35:00
7:55 PM,35.6,26.6,70,30.14,10.0,South,5.8,-,N/A,,Clear,190,2014-02-08 01:55:00
8:15 PM,33.8,26.6,75,30.16,10.0,South,5.8,-,N/A,,Clear,190,2014-02-08 02:15:00
8:35 PM,33.8,26.6,75,30.16,10.0,South,4.6,-,N/A,,Clear,190,2014-02-08 02:35:00
8:55 PM,33.8,26.6,75,30.16,10.0,South,3.5,-,N/A,,Clear,190,2014-02-08 02:55:00
9:15 PM,32.0,26.6,80,30.16,10.0,South,4.6,-,N/A,,Clear,190,2014-02-08 03:15:00
9:35 PM,32.0,26.6,80,30.16,10.0,SSW,5.8,-,N/A,,Clear,200,2014-02-08 03:35:00
9:55 PM,32.0,26.6,80,30.16,10.0,SSW,4.6,-,N/A,,Clear,200,2014-02-08 03:55:00
10:15 PM,32.0,26.6,80,30.17,10.0,SSW,3.5,-,N/A,,Clear,200,2014-02-08 04:15:00
10:35 PM,32.0,26.6,80,30.16,10.0,South,4.6,-,N/A,,Clear,180,2014-02-08 04:35:00
10:55 PM,32.0,26.6,80,30.17,10.0,South,4.6,-,N/A,,Clear,190,2014-02-08 04:55:00
11:15 PM,32.0,26.6,80,30.17,10.0,South,3.5,-,N/A,,Clear,170,2014-02-08 05:15:00
11:35 PM,32.0,26.6,80,30.17,10.0,Calm,Calm,-,N/A,,Clear,0,2014-02-08 05:35:00
11:55 PM,32.0,26.6,80,30.18,10.0,Calm,Calm,-,N/A,,Clear,0,2014-02-08 05:55:00